GFSMA_con_3kmhel_225.txt.gz
Helicity
323 273 231 210 171 202 149 140 116 92 95 67 81 56 188 185 146 126 124 105 91 77 76 76 73 72 71 75 77 75 70 77 86 99 107 111 104 103 99 100 102 101 95
355 299 269 231 188 198 169 142 128 99 89 97 107 75 175 209 172 155 142 109 96 92 85 84 82 75 80 80 81 67 69 79 92 99 101 108 112 107 99 94 85 80 89
350 320 276 237 216 220 195 173 130 117 90 103 141 111 205 226 201 167 157 126 118 105 107 87 94 93 86 84 78 80 88 94 89 90 97 110 109 110 105 94 89 86 87
319 314 304 253 246 259 228 200 165 152 133 130 165 145 252 239 206 163 151 154 148 122 113 107 97 109 103 92 86 98 99 96 95 96 105 103 107 113 98 106 101 86 81
298 342 325 306 303 283 251 230 208 206 202 194 198 191 280 263 220 185 159 170 170 165 145 109 124 124 122 98 100 110 114 105 106 108 101 104 119 121 122 110 105 97 92
291 389 367 349 335 291 270 255 228 246 244 249 253 224 274 261 231 207 153 150 197 184 171 157 171 143 131 104 124 114 118 114 119 122 111 118 125 128 123 114 106 111 109
331 373 422 410 348 293 306 312 331 298 312 329 373 279 290 230 215 206 164 163 202 205 193 204 203 183 150 123 126 126 129 125 134 135 137 138 138 139 131 123 108 97 98
361 376 416 425 390 364 353 298 304 364 349 342 340 356 326 346 301 228 216 216 221 242 236 231 224 221 184 159 146 133 142 143 146 146 158 151 140 125 118 116 104 111 112
287 337 436 441 446 448 421 323 350 348 385 352 387 383 420 304 393 341 266 277 289 321 283 266 257 248 241 224 194 160 177 172 161 152 157 151 137 130 113 105 105 106 108
311 351 391 458 486 463 416 337 372 373 459 378 427 377 391 369 408 387 386 372 345 395 380 337 296 309 273 281 256 218 194 211 203 184 163 157 149 140 133 116 114 101 88
341 335 349 491 471 473 434 389 348 376 443 420 421 459 518 449 388 422 397 434 460 426 458 433 343 339 323 326 315 277 239 248 306 225 187 156 138 131 130 130 121 126 118
344 340 388 453 475 449 440 448 396 404 403 388 422 438 499 600 506 509 445 392 442 491 471 417 405 395 408 380 356 303 266 317 349 284 224 183 150 144 143 131 134 124 121
347 330 339 391 429 456 456 477 455 437 432 418 405 488 519 507 516 533 522 403 408 516 529 420 438 456 467 443 421 387 312 364 384 367 324 247 192 151 121 125 138 150 132
363 348 345 303 320 400 453 486 491 449 406 400 406 423 536 520 603 560 627 573 500 467 548 573 564 534 575 577 532 483 435 446 460 462 422 282 212 183 151 120 119 132 132
347 354 360 354 338 383 415 503 476 462 443 414 373 429 468 535 540 540 526 513 456 436 394 408 579 612 658 711 624 619 560 531 543 491 496 352 237 181 136 140 123 120 140
290 323 305 332 338 376 420 522 445 437 449 422 425 401 456 499 491 569 526 511 428 400 395 412 457 595 672 734 729 716 635 653 635 650 567 554 388 421 213 160 130 124 138
273 267 275 288 274 321 379 486 444 435 429 414 386 395 401 430 484 462 499 544 468 474 423 418 420 424 494 609 744 758 890 726 756 691 616 513 484 473 400 243 146 150 138
235 246 230 249 257 292 339 387 412 454 432 377 371 393 368 403 401 481 474 425 537 487 544 581 490 572 551 566 778 915 852 812 920 778 647 528 522 427 511 465 258 194 210
151 127 161 157 197 245 259 299 352 397 427 377 382 372 366 386 428 486 521 518 577 573 534 655 708 722 653 773 919 860 927 961 858 756 777 657 543 464 496 586 448 335 271
64 108 85 120 106 212 223 255 344 352 376 384 407 387 364 382 390 389 429 450 470 544 554 508 646 763 743 922 934 948 899 812 824 829 692 626 603 521 606 614 528 346 285
120 108 161 188 166 90 194 250 302 326 360 306 285 306 315 310 343 350 453 423 455 530 546 592 774 853 854 994 995 1013 924 835 776 894 756 714 755 740 727 625 561 420 435
106 87 97 128 159 169 193 138 241 250 256 265 319 297 248 284 342 367 402 431 505 503 458 575 716 666 753 866 898 1011 929 1033 971 863 821 816 931 990 834 729 618 461 422
27 67 48 74 122 126 173 195 106 219 252 261 337 297 353 292 342 348 351 392 455 467 420 557 625 672 759 778 815 797 845 903 840 842 850 888 968 1010 889 804 590 495 388
80 44 47 19 39 82 123 146 171 118 151 214 241 282 303 302 316 354 363 363 395 390 403 467 432 531 554 636 697 788 815 793 855 731 839 911 970 1060 967 789 550 450 342
73 54 98 75 35 31 70 105 113 109 121 180 270 234 263 297 247 304 380 319 356 364 427 421 467 470 559 533 648 731 717 747 822 777 787 781 811 870 783 650 526 356 305
66 64 66 90 105 81 73 112 110 110 94 151 210 264 217 256 272 278 241 290 249 332 408 470 517 482 504 516 536 467 663 613 741 772 680 764 711 737 562 517 502 389 320

GFSMA_con_3kmhel_228.txt.gz
Helicity
266 259 218 209 165 137 109 113 103 72 70 109 196 171 151 123 99 92 79 86 71 65 59 58 62 59 62 70 68 71 73 73 78 86 94 106 114 120 117 112 109 97 98
307 312 291 235 174 153 118 122 116 87 78 121 208 170 177 157 126 105 100 97 86 74 69 70 71 73 77 81 75 80 75 78 78 86 90 97 109 108 111 109 94 85 75
327 353 313 250 231 199 153 147 143 108 109 129 227 186 205 177 143 129 110 117 97 84 77 79 78 87 88 89 93 87 82 84 88 93 87 88 102 117 115 111 94 100 108
326 343 323 290 264 241 183 159 151 130 119 137 262 216 242 211 173 145 128 145 140 109 90 86 90 85 91 90 94 94 92 96 102 100 85 90 95 111 122 105 97 116 99
303 323 345 321 304 257 210 191 168 161 159 157 257 250 241 235 204 176 138 140 147 139 108 95 106 114 91 86 94 101 100 103 103 96 90 89 97 106 113 108 103 101 94
299 310 323 343 329 275 244 207 200 213 192 193 258 292 248 226 239 184 127 127 145 139 125 137 135 122 113 82 91 102 107 108 109 109 106 104 105 110 113 106 99 96 97
330 314 322 379 313 291 264 232 282 279 287 275 410 376 318 246 204 177 157 151 152 151 157 155 166 165 125 102 94 118 119 111 119 120 118 114 114 123 108 103 96 99 95
391 360 352 348 296 298 266 275 287 359 347 322 357 456 341 263 214 174 184 198 166 178 175 182 200 208 180 158 135 122 127 123 128 124 116 126 128 117 112 110 114 91 89
323 376 387 371 323 302 313 308 303 300 353 331 379 411 408 263 347 238 215 232 207 216 201 191 204 215 208 195 169 122 111 138 138 136 132 132 144 140 126 119 114 101 101
347 358 398 375 365 357 325 315 316 346 387 368 458 370 347 305 331 293 276 234 240 226 231 221 222 226 237 238 215 179 144 166 163 168 152 151 145 139 134 122 113 110 109
306 327 388 411 383 389 375 346 338 297 334 399 406 422 434 380 334 320 309 336 300 235 255 269 257 246 255 267 242 220 192 210 212 222 197 187 159 156 142 138 136 144 121
359 327 387 427 434 428 416 374 355 343 324 343 395 421 429 508 463 421 342 301 333 301 287 281 273 279 289 302 291 268 236 248 259 278 287 228 190 173 149 141 132 108 95
317 332 377 467 479 453 434 448 422 364 400 375 389 422 427 418 459 408 429 364 364 384 338 296 294 324 347 340 331 320 288 290 306 322 346 292 220 177 171 147 137 117 88
282 303 344 413 453 450 433 461 475 447 406 390 362 404 435 426 476 450 462 461 419 369 389 358 344 363 413 433 420 392 349 328 348 383 418 369 300 227 194 156 127 106 117
191 210 313 398 452 468 468 495 448 401 402 394 356 367 417 420 464 507 477 455 429 384 315 346 396 392 452 462 454 468 423 370 387 438 469 487 398 319 288 303 312 328 250
215 191 243 284 377 439 423 462 447 388 378 384 377 348 345 391 401 485 505 491 400 371 340 309 349 426 395 448 451 511 481 471 473 520 556 564 557 401 413 454 442 444 416
334 239 159 180 263 332 407 439 435 449 399 370 366 376 386 370 400 420 437 452 409 401 342 318 287 353 413 447 462 487 457 504 569 589 645 570 609 548 591 494 498 393 464
449 414 310 147 179 300 391 408 432 436 409 396 389 374 368 451 452 453 479 449 439 424 405 290 386 454 448 500 497 530 518 486 631 588 718 704 629 613 639 598 523 502 478
365 368 263 227 236 116 259 340 381 414 413 401 410 407 436 429 428 507 502 461 482 422 430 402 438 501 477 510 578 496 525 608 635 603 731 710 677 718 649 587 539 492 502
141 71 -6 136 187 251 246 191 290 287 314 325 357 394 388 395 430 485 496 472 501 486 462 465 437 540 553 620 544 546 618 649 707 758 632 595 668 681 640 584 539 542 578
89 127 94 94 176 209 217 241 195 311 175 257 311 330 337 340 333 357 438 420 375 406 461 421 407 564 626 667 579 662 605 596 608 730 617 627 659 616 597 605 598 638 723
53 80 121 153 244 246 261 235 121 171 211 168 330 300 284 266 242 339 383 347 376 392 390 376 422 593 595 646 640 670 703 757 637 693 678 626 661 670 658 655 682 725 758
99 86 93 158 187 176 189 224 209 177 215 183 264 282 300 283 262 198 242 319 336 329 318 453 462 484 615 605 642 534 652 673 605 626 647 652 654 613 677 716 759 836 795
127 130 135 78 163 181 236 245 232 211 170 153 181 208 305 246 252 329 231 256 278 291 360 387 376 423 484 552 520 538 560 658 687 561 573 691 717 763 748 733 737 842 813
68 82 68 86 151 161 118 163 170 170 176 152 151 152 192 296 285 258 242 315 238 303 315 329 411 377 482 488 531 602 561 540 555 622 631 614 682 689 716 727 646 706 804
82 68 86 64 52 85 162 78 70 115 185 152 123 133 144 188 242 283 296 314 274 301 312 332 423 460 503 455 462 414 587 456 577 620 597 679 659 657 639 605 660 609 681

GFSMA_con_3kmhel_231.txt.gz
Helicity
232 200 151 161 162 129 95 87 90 152 179 182 136 133 112 99 79 44 41 51 43 24 34 31 31 38 38 42 54 51 46 37 52 57 60 67 73 73 80 82 72 73 71
254 259 223 234 242 180 131 102 98 145 199 186 169 126 132 118 92 61 55 51 53 34 28 40 38 44 48 52 56 54 48 56 60 58 65 70 74 85 97 89 83 86 81
311 316 309 285 295 222 171 145 144 154 208 185 187 150 145 132 105 84 76 75 60 57 38 42 52 52 54 58 55 61 52 61 64 62 65 61 73 80 80 87 76 70 81
337 348 337 313 347 263 198 139 133 168 192 228 229 192 170 146 118 105 101 97 95 80 60 70 59 57 59 61 63 62 65 73 77 75 69 65 69 67 72 82 80 80 89
363 376 345 355 339 269 253 205 168 168 193 263 234 225 202 171 134 126 106 106 99 115 100 90 74 70 62 64 67 69 67 72 73 75 70 75 70 71 74 78 87 90 90
354 367 375 379 362 296 272 233 192 210 201 282 291 251 214 181 163 136 94 109 101 118 121 120 96 78 71 66 66 69 71 75 75 78 79 79 84 78 80 79 85 90 84
336 318 374 422 358 314 299 266 279 231 271 345 462 345 261 211 173 144 129 125 116 111 123 123 141 139 108 81 74 69 71 73 71 75 85 91 95 91 89 88 89 93 82
350 324 348 400 377 341 317 318 291 295 302 315 384 459 264 212 163 152 154 151 136 135 130 141 164 170 171 125 91 67 72 79 82 85 88 93 98 93 102 93 87 95 81
344 316 326 380 386 383 362 320 328 299 349 293 321 367 334 191 269 191 138 168 155 171 151 158 172 174 187 173 115 75 88 82 96 98 109 98 105 105 101 102 98 106 96
330 321 338 364 356 379 331 341 364 371 395 319 414 279 307 237 267 220 218 167 170 160 154 166 168 172 188 184 154 138 103 80 113 121 124 122 102 108 98 103 118 107 102
295 324 357 365 353 366 346 327 363 354 348 332 343 397 452 366 299 234 210 255 215 153 164 174 189 184 194 201 182 168 146 119 134 149 145 140 116 124 106 121 125 122 123
353 303 332 360 335 340 369 363 335 321 319 321 321 358 393 517 447 377 302 233 241 218 218 208 183 191 211 219 213 207 183 154 163 187 176 165 156 130 132 140 155 153 150
327 288 317 356 375 334 352 370 344 333 335 325 327 333 341 328 386 362 317 253 219 269 215 234 207 208 219 232 228 235 227 200 195 218 229 222 206 172 157 153 143 184 182
249 245 307 358 351 370 382 382 380 339 332 329 295 299 346 328 354 371 349 332 260 237 232 221 232 270 267 260 254 256 247 254 248 254 279 277 273 271 220 158 137 150 198
189 178 274 301 334 368 397 431 416 396 348 336 304 323 335 326 351 350 359 345 302 197 173 204 251 206 298 308 314 322 279 248 296 306 318 360 360 336 312 238 206 234 283
251 275 214 212 296 322 371 405 393 367 400 394 381 335 343 340 334 341 379 355 371 232 173 131 203 276 226 281 306 347 337 337 314 356 341 367 446 439 389 304 273 364 354
423 323 218 182 157 168 277 370 340 345 392 391 391 389 392 374 429 426 428 397 399 345 281 191 194 193 233 214 241 298 320 355 392 364 395 458 466 470 491 462 349 329 316
383 394 407 372 144 90 134 314 337 372 405 380 373 400 371 450 409 484 505 428 415 361 369 249 282 350 329 296 288 316 324 342 376 330 402 471 532 563 600 511 466 443 403
296 326 303 298 272 352 222 204 295 374 372 333 336 366 387 397 390 432 486 457 440 406 394 414 335 389 375 365 366 355 334 338 361 370 358 417 517 558 661 558 554 467 442
233 219 286 241 171 259 284 258 199 233 250 198 303 297 331 350 375 404 459 475 476 463 400 414 374 485 481 486 438 403 406 415 420 452 356 384 431 513 557 607 567 499 479
238 203 148 153 177 130 222 190 230 206 237 273 301 278 264 287 307 327 425 408 412 422 436 458 447 455 587 630 498 555 442 435 440 535 456 394 404 428 487 626 561 548 549
154 149 144 127 173 189 163 211 220 248 265 177 231 273 265 249 228 329 358 326 371 386 417 424 428 393 474 496 567 536 498 607 514 490 462 424 449 445 498 521 494 530 593
145 155 137 147 174 189 237 233 218 215 220 238 212 217 212 248 302 215 246 173 233 199 309 393 353 393 453 483 556 617 543 530 431 465 407 467 491 392 456 475 489 580 669
66 37 67 131 150 148 176 211 227 165 163 186 195 194 198 242 288 257 245 234 153 216 278 251 369 269 349 418 471 396 466 418 509 461 403 382 469 452 479 479 464 557 650
86 67 62 66 121 188 169 130 154 200 217 196 197 198 230 197 230 278 281 239 222 242 257 227 309 334 364 471 487 573 490 437 399 394 489 504 460 474 492 522 407 410 527
100 117 85 60 41 76 91 107 116 127 154 182 205 203 190 174 175 200 228 233 239 239 276 314 282 246 329 427 522 406 464 421 460 441 394 519 457 432 397 431 452 396 417

GFSMA_con_3kmhel_234.txt.gz
Helicity
216 210 186 171 129 113 138 179 179 142 106 91 81 88 61 41 28 22 17 19 19 7 12 16 16 16 20 20 20 20 21 24 26 29 40 47 49 51 57 51 47 43 37
237 219 183 191 189 162 173 191 199 178 153 112 92 84 82 54 44 41 34 28 31 21 16 24 21 20 19 19 21 22 19 22 23 29 32 35 29 38 54 52 55 58 64
266 271 254 268 273 198 190 230 249 236 191 146 109 101 98 77 55 53 52 51 32 22 32 26 22 30 24 21 26 28 29 29 33 38 37 44 45 51 64 60 62 58 66
300 289 306 293 339 265 223 244 261 246 213 179 150 119 114 101 81 64 63 59 53 42 30 30 26 33 30 32 27 28 27 30 35 42 43 41 44 44 48 51 58 65 69
362 324 379 394 368 385 251 224 258 274 249 219 187 156 121 109 92 89 66 59 60 63 67 48 40 45 46 29 29 30 39 36 38 41 45 39 42 47 56 53 55 63 63
398 399 368 431 403 351 274 246 261 338 286 261 243 209 165 128 113 87 62 65 63 72 87 79 60 68 50 41 32 37 48 49 45 47 47 44 50 49 53 57 58 74 68
387 404 407 456 434 339 270 364 357 337 389 382 370 278 206 153 118 108 99 92 73 80 93 93 92 100 71 46 44 42 44 50 49 54 50 50 49 56 59 60 62 66 70
406 398 394 421 402 395 322 339 306 375 403 356 367 374 218 167 127 102 112 111 95 107 95 99 112 122 116 94 71 38 49 51 50 47 54 66 63 67 71 60 66 69 71
435 376 392 443 439 385 374 330 345 337 414 367 348 326 269 141 211 150 102 121 118 126 117 124 119 128 142 130 95 51 36 50 59 62 64 67 67 63 80 80 81 86 79
371 357 393 415 443 433 390 362 384 368 418 436 417 278 272 194 211 171 180 134 141 124 133 142 128 141 144 143 119 114 52 55 57 66 71 77 74 71 79 86 89 104 112
334 417 397 410 376 367 341 402 414 381 365 398 398 400 404 331 260 181 163 196 193 155 168 171 168 168 180 173 149 132 92 76 84 87 83 101 87 85 91 100 108 121 112
332 383 415 435 388 363 347 412 421 415 401 372 362 378 395 470 377 316 258 191 182 172 208 200 191 199 205 191 171 165 134 109 106 111 116 128 118 103 102 99 105 121 122
334 367 366 404 385 371 354 376 401 385 408 408 376 368 365 389 351 342 235 159 127 193 143 199 198 217 231 228 202 198 186 155 132 142 156 136 174 144 132 116 96 115 122
310 351 339 344 342 326 373 354 358 372 376 337 327 359 331 347 379 389 333 285 196 148 156 126 126 228 284 303 269 245 224 212 182 177 197 206 197 227 183 166 109 105 105
343 328 290 323 320 341 321 348 345 326 350 331 296 296 286 293 316 350 357 351 264 178 145 146 170 131 192 266 305 307 262 232 228 228 242 243 256 290 264 257 164 134 123
295 279 265 194 248 301 301 322 309 304 319 305 316 319 296 271 268 302 342 302 276 190 140 178 182 241 190 212 215 268 279 287 276 268 270 271 290 312 339 315 287 205 208
395 309 226 275 239 202 268 337 304 311 316 306 316 294 275 298 353 346 352 309 294 258 206 174 227 229 224 198 203 226 224 253 254 273 285 317 336 377 406 410 354 297 292
541 452 360 277 329 255 162 156 249 194 315 275 299 305 280 310 316 346 351 323 335 303 316 173 295 317 278 259 259 257 258 241 253 237 269 286 330 392 452 476 436 421 313
459 415 364 406 367 370 296 202 290 243 170 94 280 320 301 304 320 380 422 374 364 340 358 299 243 348 334 303 297 270 272 279 266 234 257 284 284 343 458 526 495 496 410
438 431 335 265 276 273 231 373 241 125 265 340 173 243 341 200 267 376 395 346 356 343 358 362 278 375 390 370 394 365 344 332 299 292 300 307 259 279 411 487 515 557 443
322 286 248 347 163 240 224 281 295 259 168 146 266 292 238 222 366 352 351 357 365 374 423 361 278 328 421 440 387 423 362 340 293 333 295 265 315 313 362 333 413 484 432
140 218 102 172 122 194 224 239 205 152 211 241 167 180 142 183 244 266 311 310 352 347 307 357 346 336 291 315 374 332 415 422 337 385 327 341 348 353 326 326 254 332 521
264 203 226 166 227 186 210 207 178 157 176 213 242 180 169 221 225 260 242 256 242 301 290 283 320 331 299 414 373 405 425 394 299 376 302 351 395 307 271 325 308 331 429
136 156 205 108 102 165 159 173 190 172 156 172 181 192 229 201 195 220 217 203 178 214 238 282 313 384 298 348 312 307 421 383 452 401 396 324 330 361 437 367 259 299 405
39 42 66 82 122 103 138 149 134 109 133 159 147 144 160 161 193 119 190 192 216 223 227 257 243 276 305 349 357 519 502 462 409 432 431 350 311 360 340 317 300 225 306
24 46 56 63 83 110 101 103 145 199 185 156 152 144 145 162 192 181 141 203 205 227 269 285 247 213 225 275 418 372 474 408 480 391 325 385 357 329 210 208 239 267 216

GFSMA_con_3kmhel_237.txt.gz
Helicity
176 160 144 120 141 150 117 123 73 60 39 35 20 5 -4 2 2 -4 -1 12 19 18 9 7 7 10 15 27 29 30 25 27 43 43 39 41 50 60 54 43 41 43 35
228 188 158 145 171 183 151 111 113 83 60 52 36 20 9 13 16 15 11 9 12 7 7 12 7 6 10 15 12 9 10 21 25 15 2 10 9 12 24 23 20 44 37
251 232 199 198 215 215 183 154 117 117 94 76 51 34 28 26 28 26 23 19 18 17 14 12 9 7 11 14 14 8 10 17 27 16 9 22 12 25 33 42 38 48 45
282 300 268 238 297 272 226 201 173 162 111 101 80 63 42 38 36 31 32 27 23 21 23 27 22 23 16 14 14 17 23 27 26 25 31 31 27 40 45 43 41 39 44
346 378 346 343 352 314 273 229 175 177 161 124 110 89 68 50 45 46 35 29 26 27 25 38 31 28 9 14 13 16 18 22 26 27 31 33 36 33 38 42 44 65 51
394 455 422 451 353 383 301 207 198 177 179 161 149 135 107 82 66 54 46 39 27 25 31 31 29 27 40 15 16 17 26 22 27 31 38 39 30 44 44 52 54 70 63
368 469 519 576 364 356 367 277 246 238 260 221 247 194 157 112 83 61 58 54 42 29 31 33 37 36 43 29 30 21 15 25 30 32 32 37 45 43 48 53 58 72 78
394 454 549 484 433 418 337 275 327 298 245 230 271 244 191 139 98 79 74 68 56 54 45 38 33 38 35 33 27 23 6 28 30 40 39 41 48 50 45 58 62 76 78
413 466 578 569 508 430 333 304 333 393 334 278 260 262 264 171 172 111 80 83 77 75 62 57 52 47 40 39 56 40 16 38 43 35 54 55 52 48 51 60 67 76 71
302 416 491 536 502 490 359 308 394 347 339 318 303 243 276 218 240 167 160 105 92 85 78 80 74 64 60 54 51 53 62 41 59 56 61 65 57 59 66 66 64 72 78
312 358 404 480 502 518 435 362 347 360 348 344 368 365 336 298 255 228 172 177 144 112 115 110 101 91 81 76 71 67 77 58 59 68 75 74 76 66 74 78 68 67 80
300 323 402 487 520 490 470 410 315 290 346 318 312 334 333 404 311 290 261 177 125 125 152 145 131 128 117 103 83 87 119 78 81 81 81 88 97 84 80 78 64 75 88
329 357 391 423 456 443 410 439 425 304 312 309 298 312 291 280 263 208 210 182 164 149 123 113 113 124 135 134 110 131 133 118 99 104 112 114 139 133 111 91 67 72 75
337 386 395 405 399 422 451 400 402 336 348 338 286 301 286 269 284 265 247 237 213 120 109 115 82 107 118 129 153 219 135 155 145 126 127 143 162 174 174 130 106 87 75
294 324 394 397 397 393 408 415 385 345 327 306 296 287 293 270 258 261 272 273 198 118 86 105 131 76 90 112 131 154 138 159 169 178 165 164 176 204 222 214 168 155 94
271 326 344 363 393 388 376 366 344 324 331 315 300 285 285 268 256 250 225 212 216 163 113 83 105 142 120 126 119 130 128 166 219 203 221 215 215 233 270 280 275 199 162
241 293 301 306 378 352 329 292 318 348 314 293 286 265 233 232 237 233 259 211 205 203 146 110 104 115 142 135 121 119 112 129 154 180 208 231 244 269 305 322 331 289 260
334 269 299 293 284 288 263 307 306 332 240 321 306 294 241 259 222 211 224 198 232 216 209 131 174 205 176 151 130 135 139 123 111 153 184 183 204 218 293 362 396 366 351
702 700 493 431 337 262 190 191 205 229 219 280 247 266 249 262 276 274 252 224 199 221 214 176 175 178 160 185 200 168 150 134 129 154 171 197 188 232 300 345 379 406 386
726 617 865 412 420 523 315 147 178 254 192 168 283 77 213 234 192 241 268 246 231 282 244 205 172 195 211 218 212 207 235 210 180 182 196 175 171 204 240 281 358 402 454
677 543 576 526 345 354 308 342 327 264 196 82 210 198 126 208 56 177 239 316 303 285 293 240 122 134 319 347 292 270 240 237 188 235 211 218 242 243 246 235 254 345 464
699 654 386 439 299 309 286 381 254 305 237 254 114 84 92 215 282 337 185 174 290 226 289 341 208 190 330 358 322 233 271 318 281 241 239 248 287 254 266 284 193 269 364
495 573 473 427 474 265 196 254 215 224 204 216 295 342 178 132 191 213 125 143 185 213 215 216 281 241 283 301 224 249 242 287 211 216 163 197 297 287 245 291 291 229 335
223 184 368 476 184 143 211 200 239 226 198 102 119 152 165 209 161 139 154 140 138 193 229 265 223 160 163 195 213 254 291 252 296 321 298 251 261 226 282 255 232 194 204
99 155 128 149 413 299 99 223 267 235 176 158 178 177 198 172 162 249 192 173 181 199 200 176 195 174 195 270 274 351 407 427 283 282 313 383 272 250 272 250 207 151 196
-1 -1 30 86 57 67 176 140 114 173 185 175 157 164 152 141 130 153 122 173 154 141 206 230 207 182 260 288 352 308 365 305 351 269 257 352 331 307 220 245 212 195 208

GFSMA_con_3kmhel_240.txt.gz
Helicity
148 132 108 122 107 49 28 12 41 27 15 3 -11 -12 4 19 13 17 14 30 30 22 9 7 21 40 51 53 55 50 41 42 57 56 57 66 67 70 68 72 56 50 47
167 129 137 146 114 89 53 37 42 60 52 32 15 2 8 26 21 28 22 15 30 29 9 13 22 20 14 32 50 55 52 48 53 46 48 57 53 56 55 58 61 56 52
187 179 170 193 162 150 117 83 53 78 75 64 42 33 24 29 34 30 28 18 19 14 10 13 20 25 25 20 16 22 32 46 42 35 28 28 22 31 39 46 62 61 58
215 253 233 234 221 196 125 98 85 78 76 77 79 65 49 41 44 44 37 26 19 24 24 17 23 26 26 18 8 10 10 18 30 27 34 46 44 51 46 51 54 60 59
214 242 277 275 325 224 177 156 135 107 110 101 96 90 76 64 52 53 54 40 38 38 32 55 40 37 32 19 12 14 21 21 24 29 37 39 40 54 55 49 47 62 61
200 234 269 298 360 283 252 203 166 163 122 116 105 120 100 95 76 64 59 50 50 45 49 48 43 33 27 24 18 15 26 24 29 29 33 33 40 45 47 54 64 60 50
244 264 314 357 372 346 368 303 251 180 148 134 117 114 126 121 104 79 69 65 58 55 51 49 44 46 48 39 30 16 22 26 33 35 35 37 44 54 53 52 63 64 62
276 343 420 433 386 439 425 333 229 203 107 151 173 150 145 135 119 99 97 87 74 67 63 53 43 46 55 46 38 41 32 26 41 38 40 48 47 63 59 60 58 68 67
314 364 391 482 501 484 497 407 301 238 222 193 183 208 208 137 152 132 118 105 96 93 80 71 57 51 50 53 76 66 32 25 69 42 50 59 61 70 70 59 59 76 67
318 377 474 506 503 516 443 397 343 295 275 302 233 192 205 203 216 178 145 137 120 101 91 91 79 63 62 61 68 73 84 35 67 64 77 71 77 74 66 69 71 81 74
397 371 474 533 515 484 478 397 327 316 265 251 267 307 241 219 180 118 148 174 154 124 113 107 101 84 76 74 77 87 131 83 75 69 111 93 85 76 77 83 72 78 79
441 389 462 504 515 493 435 418 374 342 299 304 250 254 248 265 252 218 159 108 142 149 146 133 119 106 96 92 82 109 161 126 101 98 101 116 115 106 103 88 77 73 76
409 422 486 444 437 458 427 390 436 350 292 338 291 236 210 205 201 175 158 114 129 134 141 126 113 108 105 98 84 103 160 146 114 112 112 124 136 132 128 113 89 78 69
357 480 538 510 421 415 439 420 379 303 252 254 227 261 253 224 201 164 146 169 125 131 124 131 113 96 90 91 86 164 107 153 127 123 123 132 156 165 145 141 125 91 80
315 403 465 484 433 468 485 471 466 391 288 250 207 251 265 238 224 230 212 188 164 129 87 104 171 107 103 100 90 115 99 138 165 139 142 144 165 197 197 182 167 142 118
301 311 329 410 412 413 417 437 415 409 383 318 272 230 216 217 208 219 261 226 221 155 114 86 49 96 117 112 103 105 102 137 183 166 165 194 196 214 231 231 235 219 184
202 213 252 325 432 430 401 399 368 359 378 334 273 244 214 228 218 190 217 219 206 214 153 142 195 63 69 106 122 138 116 127 141 184 193 201 211 228 250 260 292 277 235
280 147 206 228 298 342 376 398 386 380 350 311 314 286 225 266 229 228 184 182 174 191 178 136 139 165 144 97 116 123 122 126 118 146 188 184 193 222 264 287 322 320 318
592 489 371 237 328 386 391 383 424 384 322 277 288 282 289 270 248 249 271 243 206 205 152 135 133 138 145 131 123 127 134 95 103 137 136 174 181 173 219 297 330 340 353
754 723 673 641 620 504 369 366 396 360 285 275 254 240 232 246 269 267 257 281 263 248 234 190 159 229 228 188 177 145 153 132 120 129 149 139 133 141 226 250 260 339 343
605 680 821 839 734 678 706 941 686 225 233 205 222 246 202 211 219 198 247 289 310 304 293 285 250 229 248 288 226 237 174 140 143 173 130 126 161 208 195 176 188 244 309
744 646 645 743 761 829 721 446 281 332 276 178 206 231 249 287 118 196 216 227 262 175 233 200 103 250 173 211 209 253 241 199 182 180 203 188 266 239 209 252 191 192 236
612 691 639 595 585 583 742 650 660 409 209 207 270 289 185 205 198 219 192 201 123 186 136 187 185 258 40 187 202 293 298 350 190 165 115 150 242 247 228 210 226 237 268
405 545 498 481 911 672 502 389 696 621 320 233 109 150 145 166 210 160 159 149 217 236 233 242 35 107 135 159 249 256 253 246 195 276 188 172 242 270 217 193 194 189 197
125 61 212 84 265 422 472 426 456 324 111 199 166 148 165 157 197 235 211 167 159 188 199 147 117 153 183 233 214 296 244 311 224 187 226 235 210 207 182 193 216 190 165
1 20 13 96 66 201 163 519 356 392 288 285 105 113 120 145 140 124 140 132 150 162 180 153 161 141 159 191 197 207 245 263 339 261 210 282 304 205 143 172 222 201 174

GFSMA_con_3kmhel_246.txt.gz
Helicity
157 187 174 176 158 120 103 86 54 24 -13 -4 32 55 61 72 76 42 100 74 70 69 68 52 53 57 75 74 60 57 45 54 56 54 73 79 96 92 101 89 90 89 85
175 221 180 175 177 138 120 103 86 53 38 44 54 54 69 112 95 24 96 114 84 59 34 48 48 59 59 54 45 49 38 51 69 68 83 80 79 87 85 77 90 96 90
207 220 219 189 193 156 138 116 103 78 95 90 73 79 78 96 113 34 68 118 113 91 77 49 44 51 52 52 47 35 49 45 68 64 73 78 70 72 73 71 68 77 73
248 241 263 227 222 183 177 133 124 115 138 122 123 102 98 100 112 88 54 87 97 93 73 49 52 64 54 44 30 42 55 41 48 60 67 75 66 66 70 73 80 88 102
240 265 272 247 257 224 217 130 147 169 193 159 145 133 116 103 124 101 70 87 80 83 94 43 38 41 24 25 26 29 37 37 40 57 66 71 73 70 72 77 100 103 87
277 257 290 263 276 261 240 165 199 208 206 212 165 147 120 113 128 89 104 88 69 86 90 94 66 46 40 25 25 24 25 29 32 41 49 55 72 80 83 88 106 107 91
272 292 313 284 310 276 249 221 289 271 204 219 230 189 157 136 134 108 122 102 86 104 94 157 121 89 70 68 36 21 32 36 42 44 52 62 73 86 96 89 96 97 91
249 301 321 307 307 282 246 257 310 303 230 221 291 333 294 242 185 131 135 119 124 123 169 168 123 94 120 113 92 52 28 50 55 60 67 74 82 93 97 98 95 88 87
237 284 325 318 317 318 323 276 321 318 274 282 328 378 381 261 248 186 173 165 138 166 143 146 112 96 156 137 128 92 51 74 67 78 87 96 96 96 99 104 99 100 98
252 236 276 323 336 392 328 349 330 332 411 382 343 303 301 268 275 278 202 175 175 190 171 164 173 119 159 178 148 144 99 102 85 85 107 117 107 100 97 97 113 105 100
240 236 269 325 356 392 363 356 403 403 374 390 419 304 304 365 192 291 196 159 188 216 208 200 190 182 142 198 173 161 157 115 82 103 127 138 120 118 119 104 110 115 110
228 209 243 287 378 390 397 470 467 505 480 398 354 351 388 433 357 311 151 71 99 208 256 229 223 216 183 171 206 196 184 150 124 123 144 150 148 131 135 124 119 111 103
244 250 229 261 379 383 462 512 527 526 521 456 401 391 389 330 313 350 235 217 95 110 200 242 228 247 218 194 189 225 232 198 171 168 147 162 173 161 151 144 128 117 102
237 278 278 307 339 412 454 474 593 633 595 532 489 426 437 348 273 352 343 262 166 120 138 150 238 239 241 222 207 200 237 252 230 195 198 178 186 203 181 158 130 114 109
310 263 304 327 364 435 493 524 533 538 508 479 470 452 403 277 278 301 347 299 210 164 120 124 200 198 227 241 238 235 211 222 271 237 223 223 208 223 215 204 173 148 135
296 204 332 359 385 458 477 509 498 487 498 434 418 371 331 293 321 309 153 181 205 248 205 177 152 229 226 228 212 250 210 258 249 255 234 236 247 246 235 227 208 182 170
144 111 173 233 286 319 366 486 500 442 441 421 361 380 331 276 289 200 138 172 194 215 188 270 225 186 150 156 190 228 250 265 256 228 250 248 251 266 272 270 247 215 210
423 301 190 111 118 211 266 319 356 413 409 360 333 321 280 290 262 225 212 194 224 281 237 191 301 269 269 193 162 214 209 236 259 210 219 214 218 238 282 289 250 233 239
600 522 457 347 351 171 270 290 364 413 416 351 322 271 223 232 225 307 274 249 268 245 307 276 273 384 344 276 229 234 219 235 240 217 174 181 221 252 270 249 236 226 242
679 740 733 612 575 345 468 414 374 373 396 378 322 329 228 246 240 288 305 317 303 334 323 340 302 339 398 400 316 271 285 303 252 276 222 193 185 195 189 176 195 217 236
683 744 751 750 684 728 477 725 513 267 213 322 330 321 270 241 235 227 294 263 333 356 337 332 348 348 365 376 386 455 383 415 340 355 332 287 289 226 170 152 144 149 197
650 687 671 750 747 593 940 1137 881 596 490 281 438 313 242 290 279 302 278 256 260 278 261 361 365 333 321 386 347 348 407 526 440 321 317 294 271 228 212 192 154 157 161
281 540 597 547 716 772 705 1092 994 637 651 543 350 274 288 281 344 326 302 344 327 344 295 388 361 386 416 447 418 471 483 478 429 347 316 245 267 216 217 191 202 159 158
109 145 236 383 566 551 916 722 802 691 691 877 626 637 490 441 294 269 260 271 254 262 222 318 312 263 363 348 366 335 342 393 419 329 410 267 318 249 269 247 158 136 204
4 26 73 110 271 411 650 635 706 790 942 864 935 706 681 536 473 351 303 174 174 222 207 231 322 186 222 199 215 270 314 410 380 364 417 354 334 316 261 274 274 88 201
-38 -38 -9 10 40 76 243 215 378 340 590 850 802 614 582 553 474 327 364 397 299 255 290 244 158 178 227 201 197 243 269 215 320 329 290 355 331 290 184 208 213 203 187

GFSMA_con_3kmhel_249.txt.gz
Helicity
280 260 191 173 181 147 118 97 67 23 3 -4 94 71 138 90 84 45 36 71 64 58 69 58 58 59 51 49 58 47 51 50 48 50 53 56 58 64 68 59 58 58 56
333 321 233 206 206 172 134 106 74 37 2 39 82 71 128 91 112 68 55 74 78 71 88 60 53 66 68 70 73 66 47 43 37 44 52 51 68 67 78 78 95 76 60
369 371 271 235 229 206 153 132 104 76 47 65 53 63 146 125 110 97 87 112 83 62 75 52 61 62 66 62 54 39 29 38 52 44 44 61 64 78 81 89 89 90 104
391 377 313 244 249 252 196 156 125 102 53 74 65 66 154 133 83 87 97 135 122 127 90 59 61 61 58 39 37 32 32 27 35 37 38 61 61 68 77 83 82 86 95
387 401 353 276 269 280 224 183 162 143 110 119 106 109 137 192 124 93 97 116 130 137 112 83 74 65 75 50 38 41 40 38 35 44 52 54 66 70 75 80 93 95 94
373 394 360 314 289 271 255 222 184 195 166 199 151 143 146 160 152 107 85 89 112 123 126 93 72 59 47 48 46 42 45 51 47 45 46 37 55 72 84 89 102 105 89
364 407 396 377 289 258 251 235 236 241 242 253 273 183 173 134 128 134 121 109 88 98 115 123 116 109 71 52 46 49 52 62 58 49 65 45 43 67 84 91 109 108 91
329 391 398 407 323 282 260 264 249 275 289 276 258 254 238 217 148 99 140 130 101 119 108 108 120 125 120 97 64 61 48 41 56 48 52 62 50 80 87 96 108 107 98
340 378 385 400 351 352 331 274 277 276 315 264 304 318 360 242 239 139 121 161 126 150 147 148 139 132 135 132 121 93 70 20 55 69 74 96 82 85 93 99 107 97 90
378 387 438 389 347 373 306 314 315 322 366 336 358 304 330 298 351 281 204 143 170 164 199 190 174 159 148 161 132 129 126 65 44 99 99 120 106 91 95 102 106 102 96
359 367 422 405 360 393 321 321 330 318 404 399 379 344 325 308 309 331 286 261 185 161 207 240 210 188 173 174 166 135 143 123 88 115 112 137 134 111 105 105 109 110 106
324 341 349 407 368 375 339 331 339 393 400 382 372 342 342 391 333 348 340 273 237 249 216 244 274 214 225 221 188 172 145 143 139 135 133 149 157 138 125 115 112 108 105
478 268 326 353 394 343 336 382 364 373 407 410 409 412 367 393 372 354 380 346 328 296 241 213 209 260 249 269 238 227 179 165 154 148 157 162 183 163 140 136 122 99 98
276 257 259 214 302 305 344 358 395 375 468 456 429 426 439 379 401 333 458 462 429 308 333 246 223 246 263 265 267 252 237 209 181 178 175 184 215 211 186 162 141 121 107
312 267 79 124 220 296 345 361 433 403 439 461 458 464 438 360 358 394 390 419 434 463 364 390 346 213 223 262 285 319 297 231 240 209 201 203 220 231 222 210 193 157 132
592 338 293 414 30 230 339 390 413 409 449 418 394 382 358 328 347 402 407 391 389 391 346 396 283 210 186 212 255 286 280 343 265 243 230 222 228 240 260 255 241 205 164
459 390 422 313 280 180 374 448 415 406 421 401 362 321 330 321 331 343 339 317 335 349 345 416 331 186 164 135 165 235 252 329 295 251 252 245 245 247 263 287 282 245 197
497 411 241 359 326 -178 195 441 382 385 381 375 352 368 314 360 315 309 335 296 283 299 409 275 257 225 195 181 182 203 232 269 302 241 229 234 248 243 263 291 304 278 232
419 612 500 146 232 114 -128 481 389 429 388 336 332 333 305 282 283 311 321 279 250 227 284 247 207 266 222 271 250 256 231 224 263 248 230 249 248 238 260 294 290 272 251
488 236 725 824 504 385 253 39 664 410 312 296 317 356 297 302 288 276 300 307 285 266 312 252 230 276 321 301 307 274 247 288 250 285 225 208 207 190 224 246 272 255 251
297 328 388 393 517 771 671 327 125 139 399 243 258 335 337 309 285 286 292 283 292 323 315 299 250 305 343 367 319 376 310 357 340 383 310 282 262 229 176 170 176 190 211
265 276 331 352 350 450 626 733 752 446 172 336 386 248 290 356 333 310 287 264 263 305 328 314 326 336 326 383 431 388 404 470 403 381 367 344 360 294 260 262 181 179 179
225 257 251 298 331 337 466 556 609 452 389 155 499 334 198 336 346 293 296 271 268 257 255 333 324 315 313 362 394 458 435 434 420 447 429 360 434 332 270 209 180 198 193
61 183 216 192 205 280 399 427 526 624 685 581 534 343 471 568 494 356 345 279 316 289 298 275 225 219 275 288 371 389 359 440 524 475 396 431 397 340 303 182 175 235 198
35 24 64 113 162 182 210 436 373 395 593 769 551 617 667 799 863 708 332 311 257 322 274 265 286 288 329 370 424 489 453 476 532 412 462 508 437 349 313 288 290 201 151
13 -18 8 10 53 122 158 264 267 168 249 513 545 574 584 989 706 803 658 476 183 235 251 371 245 240 218 249 317 332 392 360 515 461 452 415 391 378 301 236 247 242 202

GFSMA_con_3kmhel_255.txt.gz
Helicity
299 229 192 189 160 139 122 106 80 110 102 94 70 33 52 88 93 81 59 33 44 50 64 73 75 73 67 60 53 42 50 46 50 45 45 43 34 31 27 30 30 30 34
367 312 254 247 210 160 138 134 104 105 123 129 98 32 51 75 84 89 72 41 56 55 55 58 60 63 66 58 49 38 43 49 37 36 37 33 13 13 27 17 17 14 13
347 363 329 296 259 211 167 168 147 132 180 143 120 75 71 79 103 95 87 62 53 46 38 32 40 52 54 58 46 44 47 42 23 17 25 26 10 8 14 15 50 59 54
308 348 361 325 322 286 229 192 184 154 156 172 161 121 92 98 108 107 110 78 70 58 10 12 49 48 42 76 61 63 60 28 21 18 17 13 18 6 17 39 53 58 60
401 351 360 363 372 345 276 236 215 175 177 212 186 188 144 114 111 134 108 100 83 84 75 46 67 58 82 85 84 51 21 4 4 7 11 13 17 10 19 32 37 40 34
388 414 377 372 402 391 322 283 235 225 195 222 245 236 196 151 140 127 108 107 95 85 97 99 106 76 102 96 65 23 16 3 -3 3 6 8 16 25 20 32 31 29 26
322 373 390 418 425 413 374 314 333 273 276 283 404 337 262 175 121 115 131 116 91 78 101 116 147 99 64 53 48 17 0 -2 10 0 3 3 12 35 24 30 34 34 32
280 308 381 421 439 415 393 367 346 347 310 347 321 402 347 183 114 102 126 119 82 90 81 97 122 94 96 66 39 37 -2 -11 -3 -1 3 9 8 28 25 22 30 36 35
195 211 244 367 440 437 470 432 405 370 372 318 338 440 453 209 216 127 85 97 93 93 87 92 88 76 87 98 80 57 45 13 9 12 7 12 15 17 23 16 16 26 32
-70 349 214 270 367 464 429 464 443 446 421 348 371 320 359 327 326 247 134 79 94 94 107 99 77 70 73 87 90 85 88 65 30 36 42 38 22 59 35 24 18 28 40
-103 -207 317 155 306 388 427 457 465 453 449 422 455 357 374 311 254 318 263 139 124 50 63 97 73 52 54 75 75 73 95 99 57 21 40 46 65 68 107 76 32 36 46
-13 -341 -54 288 322 365 441 436 485 468 478 422 438 372 380 419 333 316 298 212 109 117 109 116 99 74 43 41 52 59 81 103 103 64 43 55 67 130 136 104 67 59 61
-120 -79 -124 -111 180 337 370 441 485 475 472 462 414 418 382 380 360 269 333 295 300 212 138 102 101 97 82 76 64 86 79 105 121 110 71 61 89 138 151 145 122 86 78
69 63 1 220 -83 89 302 428 465 496 482 453 411 420 441 373 395 302 348 379 338 315 252 204 153 123 112 94 100 124 92 92 104 119 114 96 123 163 179 173 151 124 99
159 154 107 180 86 -103 205 386 466 472 517 440 398 396 427 401 395 370 341 342 393 324 190 195 209 144 139 129 122 177 147 89 113 128 128 133 140 176 208 195 182 172 141
268 222 119 -87 -237 -171 75 284 379 459 460 472 442 379 409 407 378 428 406 319 327 301 226 228 188 195 191 172 158 177 133 151 134 154 151 158 169 184 218 220 207 209 175
454 332 201 385 272 100 127 90 297 323 378 410 420 403 370 375 400 387 403 364 343 350 244 162 186 248 189 191 211 188 177 183 160 147 168 182 205 197 231 239 239 235 209
548 545 432 365 279 256 382 110 12 318 296 384 415 427 394 405 353 341 413 332 312 355 299 222 237 277 258 236 217 237 231 203 177 150 181 180 203 212 236 257 266 269 255
630 536 544 478 287 383 304 403 246 223 597 285 385 372 368 388 359 362 359 343 357 381 394 295 256 294 297 307 312 259 236 203 189 177 171 170 179 200 214 238 263 281 268
534 484 490 509 401 309 331 326 449 329 110 198 311 388 339 335 308 320 342 341 366 379 385 396 370 366 358 350 331 284 257 253 196 258 250 179 147 155 179 215 246 271 274
400 492 422 477 392 431 444 406 235 383 300 95 39 53 325 286 227 305 338 288 307 379 401 374 402 439 424 428 364 373 279 248 212 305 266 166 179 173 152 181 164 168 239
233 268 303 418 356 295 302 394 500 393 239 126 227 17 106 307 271 230 296 338 361 375 350 349 326 343 342 349 410 386 348 360 257 242 217 127 203 216 192 190 160 203 207
92 189 247 238 191 177 305 350 310 262 183 176 203 248 168 107 64 300 262 334 275 262 228 288 294 291 244 294 362 358 339 356 278 275 290 198 214 210 220 219 190 208 236
52 129 155 184 206 219 271 341 304 247 289 207 232 199 188 292 251 172 280 216 205 259 276 291 212 229 227 225 272 263 297 305 336 291 329 243 275 234 255 245 218 220 213
1 18 42 123 153 184 267 267 247 236 207 238 239 254 310 242 247 423 228 206 215 185 190 202 244 219 204 211 268 275 298 411 338 298 351 308 271 265 280 296 260 228 222
18 18 32 59 81 107 141 176 185 153 190 182 154 205 199 262 264 171 309 338 201 352 380 259 235 213 224 260 288 303 290 315 315 302 294 381 379 340 264 232 282 292 268

GFSMA_con_3kmhel_261.txt.gz
Helicity
184 206 134 171 204 188 168 172 145 110 68 48 25 29 27 48 38 56 64 19 51 47 44 41 51 61 65 57 40 31 36 38 36 31 32 9 15 17 29 31 22 22 9
191 266 209 159 210 212 181 186 182 133 99 81 47 32 16 35 59 53 59 43 53 58 50 44 44 51 57 50 37 34 35 33 37 30 45 28 19 28 19 28 19 24 34
112 241 230 213 186 248 205 174 160 163 119 106 59 50 33 20 68 65 53 55 67 67 55 39 35 43 44 44 40 33 33 23 40 44 41 41 21 19 27 17 14 32 36
118 176 207 270 216 194 265 241 188 175 166 128 110 70 53 37 48 72 61 70 74 70 63 44 23 43 43 36 42 39 35 27 47 43 37 32 12 9 10 24 12 26 34
224 176 176 204 275 318 212 266 209 152 183 173 138 104 83 64 49 63 60 66 75 58 60 52 35 33 30 20 26 38 48 49 44 35 17 14 -0 -10 1 5 13 29 36
321 282 142 201 216 248 295 261 221 177 155 186 202 145 101 80 69 60 76 94 85 80 54 41 34 19 16 22 17 17 30 47 35 16 8 6 1 -3 -3 3 20 36 41
362 401 216 187 278 228 305 285 293 149 174 183 264 220 146 98 77 83 79 93 94 91 71 50 46 50 38 9 13 24 23 33 14 11 4 3 -7 -6 -8 -1 15 31 40
282 291 368 172 222 256 254 315 315 245 176 268 277 285 221 131 97 106 100 99 102 103 71 44 35 38 30 19 -7 16 24 41 29 16 4 5 -4 -15 -14 -10 2 12 23
275 307 303 289 180 207 270 291 331 318 275 231 242 318 349 188 126 111 94 91 83 94 50 43 34 27 32 28 27 11 25 41 49 16 -0 9 -4 -17 -27 -13 -14 -5 8
252 308 327 338 255 419 192 252 323 391 340 254 264 263 261 272 234 168 151 116 94 83 54 35 26 25 23 33 10 8 42 78 75 29 5 -3 6 -7 -15 -17 -6 -14 -9
204 381 325 361 238 139 118 337 192 375 399 337 259 324 352 295 198 202 175 182 127 84 61 58 35 35 18 13 4 -9 65 69 78 50 12 10 11 4 9 -6 -9 3 5
71 356 403 399 441 185 280 -27 77 106 369 268 328 238 335 388 331 267 169 202 176 116 119 75 43 11 5 -1 -20 -13 49 66 77 85 64 31 23 22 30 18 -2 -7 -3
95 224 354 326 339 408 314 108 68 -28 101 232 306 309 247 284 306 275 232 185 176 203 146 114 75 43 20 9 -11 6 38 57 65 73 87 70 53 46 46 46 46 32 25
43 180 323 322 294 280 322 219 203 126 251 186 103 94 299 246 258 280 259 293 194 153 211 149 124 100 95 52 32 31 -27 14 48 58 73 83 82 82 82 83 91 73 60
-0 29 210 253 312 283 254 181 156 138 223 56 106 255 194 268 242 261 220 231 214 178 148 155 176 127 158 134 96 64 35 31 61 74 76 88 89 93 101 91 96 135 118
26 7 107 165 245 272 277 233 130 171 142 246 143 113 244 201 250 268 241 213 197 157 76 135 183 133 163 147 131 100 60 98 107 68 70 90 98 106 106 115 121 147 152
59 19 31 162 207 245 237 266 140 128 127 40 105 178 125 146 233 289 259 221 194 183 109 43 47 157 135 160 166 129 111 86 87 52 51 76 95 103 113 135 156 168 180
-7 70 58 103 174 149 230 224 305 105 119 53 5 265 287 177 204 212 284 250 180 162 145 88 26 72 142 139 139 169 173 136 119 92 99 82 101 108 123 128 161 173 198
-15 39 58 75 143 135 190 289 305 251 93 148 94 154 183 23 197 181 260 292 266 200 142 132 64 63 75 118 143 133 129 132 133 125 101 97 105 110 130 140 163 197 225
-40 20 40 126 46 128 273 277 367 280 129 171 191 194 218 179 94 348 291 265 285 273 168 155 153 74 123 131 140 167 188 160 143 148 120 107 96 103 128 147 173 171 192
-16 -27 63 92 120 105 325 407 390 309 425 279 357 339 229 281 349 299 315 304 265 275 267 155 173 153 145 230 222 231 189 176 169 171 186 173 183 188 154 136 108 147 176
16 -4 19 70 73 116 459 483 529 548 628 741 477 361 280 375 480 425 516 456 301 307 256 283 176 203 130 199 239 261 258 250 224 186 245 240 235 248 221 209 178 188 203
44 22 8 8 26 160 304 469 623 519 683 710 639 452 385 490 561 474 466 483 441 319 262 258 255 208 184 177 245 266 222 256 220 242 223 272 289 256 250 244 226 222 234
56 57 27 14 -15 31 204 250 345 357 649 669 557 497 378 398 575 406 310 460 435 291 288 307 248 232 170 173 228 255 247 220 205 256 217 285 326 268 244 228 196 225 238
56 87 65 41 26 10 102 118 220 279 348 505 469 424 345 311 420 549 302 317 340 404 428 452 430 367 252 181 212 240 249 262 312 334 330 314 323 332 324 274 195 170 206
39 67 86 86 44 37 96 123 149 228 239 288 375 337 302 294 285 268 253 341 254 394 341 420 319 263 259 230 233 233 249 267 261 344 379 405 426 417 286 200 232 215 192